Cloud_Cover
94 65 21 39 26 38 44 100 32 8 79 100 90 100 100 100 83 86 59 100 78 63 100 100 100 97 80 100 100 100 100 100 100 99 100 100 100 95 52 98 100 100 74 5 13 5 5 32 19
80 70 100 76 54 53 14 78 5 6 13 66 94 89 93 91 32 82 100 100 96 65 94 100 100 65 56 100 100 100 100 100 100 100 100 100 100 99 81 100 100 100 90 36 5 5 5 6 32
100 100 75 6 83 65 100 43 5 5 5 24 66 49 45 90 64 65 100 100 80 48 66 97 100 100 80 100 100 93 100 98 100 100 100 100 100 100 100 99 100 80 11 23 5 5 5 21 83
85 78 90 100 75 35 100 88 10 23 4 1 5 5 41 74 76 66 68 100 98 100 91 100 100 96 100 100 100 97 100 100 100 100 100 100 100 100 100 48 50 32 5 5 5 5 5 6 72
97 100 100 76 100 95 100 100 100 60 23 4 1 4 9 5 9 18 98 88 72 73 100 100 100 100 100 100 100 100 99 92 100 98 100 100 96 100 100 100 100 64 5 5 5 5 5 5 5
64 100 98 100 100 100 89 87 99 99 8 5 8 5 34 5 6 91 28 54 9 64 93 100 100 100 100 100 100 38 100 100 15 96 100 96 100 100 100 100 100 80 5 5 5 5 5 78 7
100 94 100 100 100 100 100 96 100 95 10 5 5 68 89 16 6 12 18 6 9 19 97 100 100 84 100 100 100 98 57 100 54 100 100 77 89 100 100 100 87 94 83 16 29 99 98 91 44
100 100 100 100 100 100 100 100 100 83 92 44 4 18 98 37 21 27 7 8 15 5 38 100 100 100 100 100 100 100 100 100 99 100 100 76 94 100 100 100 97 10 98 81 76 100 100 100 100
100 100 100 100 100 95 68 100 100 100 96 94 86 100 50 31 2 16 42 58 42 51 39 100 100 100 100 100 93 100 95 56 97 94 100 100 66 60 100 100 100 18 86 100 100 100 100 99 99
100 100 100 100 97 1 0 1 35 26 31 2 2 3 54 100 47 64 98 100 64 57 89 100 100 100 100 100 100 100 100 100 88 67 100 91 97 72 100 100 100 100 100 100 66 75 100 100 81
100 100 100 98 11 0 5 0 0 0 0 0 0 0 0 0 11 43 53 33 29 39 54 99 100 100 100 100 100 100 91 98 96 75 100 88 74 94 50 98 100 93 100 97 90 100 99 100 100
100 100 100 93 4 41 30 0 0 1 1 0 5 26 0 0 15 4 16 3 19 33 37 96 98 100 100 100 100 99 57 99 94 92 65 100 46 72 95 82 90 98 100 64 92 100 100 100 100
100 100 100 22 58 62 1 72 55 4 0 0 4 5 6 0 0 0 0 0 4 47 48 34 22 32 98 100 100 97 100 100 99 81 90 97 100 96 89 62 63 100 88 100 68 68 88 100 100
100 92 93 55 42 19 5 5 5 5 5 0 0 12 9 2 0 0 0 0 0 3 58 43 40 2 13 100 100 100 98 100 100 100 100 9 100 84 100 89 100 99 91 100 97 69 95 100 99
89 33 67 100 92 100 82 99 0 4 11 5 0 4 5 56 5 0 0 0 0 0 4 7 9 5 2 100 100 100 100 100 100 100 94 98 100 58 100 100 84 100 78 97 47 69 98 100 100
100 86 99 99 100 100 34 67 5 6 8 8 56 5 46 11 100 4 0 0 0 0 0 5 2 4 5 5 98 100 100 97 100 100 100 92 100 84 100 100 100 100 90 90 60 36 99 99 100
94 100 92 100 100 80 67 81 73 27 65 96 13 5 71 23 98 86 3 0 0 0 0 0 2 2 3 0 5 78 100 100 100 98 93 100 99 100 98 97 99 100 31 77 88 20 15 88 92
100 100 54 100 70 95 68 51 53 99 100 99 44 100 100 54 100 100 2 0 0 0 0 0 0 0 4 38 3 5 11 100 100 100 100 100 100 94 100 94 93 68 100 86 40 14 63 100 88
99 100 61 99 12 73 94 29 98 23 100 100 100 84 90 95 100 87 5 1 0 0 0 0 0 0 65 100 48 21 12 5 66 100 100 100 100 100 100 100 80 95 57 100 88 5 6 100 53
91 78 94 34 22 82 61 65 100 100 100 100 100 100 67 71 85 47 6 0 0 0 0 0 0 0 71 100 4 0 4 5 6 43 94 100 100 100 100 100 99 100 54 100 82 5 68 10 60
7 8 21 18 21 83 11 11 100 100 100 100 100 100 99 98 58 88 62 54 3 0 0 0 0 0 25 100 30 5 19 2 2 25 15 90 99 100 100 100 100 91 98 96 77 100 94 51 100
60 26 78 42 8 1 4 87 100 100 100 100 98 100 73 12 53 88 83 49 21 0 0 0 0 0 1 18 22 0 12 3 0 3 48 93 100 100 100 100 100 100 73 96 97 99 95 100 100
90 5 19 76 26 5 31 100 100 100 100 100 100 96 77 36 94 100 100 100 94 21 3 0 0 0 0 0 0 0 1 1 6 1 14 100 100 100 100 100 100 100 35 100 98 100 66 88 95
99 33 48 100 14 2 27 87 100 100 100 98 100 100 74 9 42 100 100 100 100 100 84 4 3 9 3 1 54 33 5 5 5 5 5 99 100 100 100 100 100 100 95 100 100 96 84 100 100
77 51 20 71 34 36 3 4 100 96 91 86 100 100 62 100 69 11 99 100 100 100 100 8 9 45 20 6 33 100 96 11 5 5 5 6 100 100 100 100 100 95 99 100 100 100 98 57 100
100 95 40 16 100 12 5 5 5 84 95 100 98 35 96 100 95 2 5 3 5 0 9 2 0 30 50 37 70 100 100 100 5 5 5 5 43 100 100 100 93 35 100 100 100 100 100 100 100
52 80 66 67 75 4 3 6 95 74 100 97 83 100 79 100 100 10 5 5 82 0 0 0 1 12 21 4 12 100 100 95 55 5 5 66 98 100 100 100 91 100 100 100 100 100 99 100 74
75 82 14 99 93 3 4 50 67 76 100 87 81 100 98 89 76 62 24 0 3 0 0 0 0 2 1 7 5 19 100 100 57 39 100 85 100 100 100 100 100 91 100 100 100 100 99 100 100
99 72 45 17 71 17 5 70 100 91 99 83 100 100 100 98 100 100 100 5 0 0 0 1 0 0 2 18 5 5 45 44 100 100 84 28 48 97 64 100 100 100 100 100 100 59 100 100 100
8 99 25 6 7 4 5 14 7 100 100 97 100 100 94 100 97 71 99 8 77 0 0 5 0 0 5 23 5 5 5 5 5 59 100 73 5 33 42 100 100 100 100 100 100 95 68 76 96